2019-037D (44368 NORAD) Tracking and Keplerian Element Data

This shows tracking and keplerian element data for the satellite.

Feedback or suggestion? Click here.




ElementValue
Catalog44368
Name2019-037D
Epoch Orbit326
Epoch Day201.37523134
Epoch Year2019
RAAN171.6412
Inclination45.0103
Eccentricity0.0013604
Argument of Perigee30.5858
Mean Anonmoly329.5846
Mean Motion15.38818949
Decay Rate-3.46E-06
L11 44368U 19037D 19201.37523134 -.00000346 00000-0 00000-0 0 9990
L22 44368 45.0103 171.6412 0013604 30.5858 329.5846 15.38818949 3269

Live tracking and technical data element details for 2019-037D (NORAD 44368). 2019-037D can be tracked NOW for your location showing map with azimuth and elevation plus other details from your city location.

Track the satellite on the map from your city or location and see movement details for azimuth, elevation, latitude, longitude, range, height, and movement on the map or in text.







IsCatalogInMostPopularTable: catalog: 44368, numindb: 15
Update: records affected: 1



GetName: 44368 2019-037D

Hit Count: updated at: Sun, 21 Jul 2019 21:57:06 GMT